| time (UTC) | temp F | wind direction | speed knots | gust knots | rain 1hr in | rain 24hr in | rain mn in | humidity % | barometer mb |
| 20260504050709 | 46 | 193 | 0.0 | 0.9 | 0.00 | 0.00 | 0.00 | 54 | 1014.1 |
| 20260504050206 | 46 | 204 | 0.0 | 0.0 | 0.00 | 0.00 | 0.00 | 56 | 1014.0 |
| 20260504045703 | 46 | 202 | 0.0 | 0.9 | 0.00 | 0.00 | 0.00 | 56 | 1014.0 |
| 20260504045157 | 46 | 102 | 0.0 | 0.0 | 0.00 | 0.00 | 0.00 | 63 | 1013.9 |
| 20260504044655 | 46 | 101 | 0.0 | 0.0 | 0.00 | 0.00 | 0.00 | 60 | 1014.0 |
| 20260504044152 | 46 | 101 | 0.0 | 0.0 | 0.00 | 0.00 | 0.00 | 57 | 1013.8 |
| 20260504043649 | 47 | 101 | 0.0 | 0.0 | 0.00 | 0.00 | 0.00 | 57 | 1014.2 |
| 20260504043146 | 47 | 89 | 0.0 | 0.9 | 0.00 | 0.00 | 0.00 | 55 | 1013.7 |
| 20260504042644 | 47 | 213 | 0.0 | 0.0 | 0.00 | 0.00 | 0.00 | 56 | 1014.1 |
| 20260504042140 | 47 | 213 | 0.0 | 0.0 | 0.00 | 0.00 | 0.00 | 55 | 1013.8 |
| 20260504041636 | 47 | 307 | 0.0 | 0.0 | 0.00 | 0.00 | 0.00 | 53 | 1013.6 |
| 20260504041132 | 47 | 243 | 0.0 | 0.0 | 0.00 | 0.00 | 0.00 | 54 | 1014.0 |
| 20260504040630 | 47 | 276 | 1.7 | 1.7 | 0.00 | 0.00 | 0.00 | 54 | 1013.8 |
| 20260504040126 | 47 | 221 | 0.0 | 0.0 | 0.00 | 0.00 | 0.00 | 53 | 1013.9 |
| 20260504035623 | 46 | 214 | 0.0 | 0.0 | 0.00 | 0.00 | 0.00 | 54 | 1013.9 |
| 20260504035120 | 47 | 220 | 0.0 | 0.9 | 0.00 | 0.00 | 0.00 | 54 | 1013.8 |
| 20260504034618 | 47 | 231 | 0.0 | 2.6 | 0.00 | 0.00 | 0.00 | 52 | 1013.9 |
| 20260504034114 | 47 | 231 | 1.7 | 1.7 | 0.00 | 0.00 | 0.00 | 53 | 1014.1 |
| 20260504033612 | 47 | 210 | 0.9 | 1.7 | 0.00 | 0.00 | 0.00 | 54 | 1014.0 |
| 20260504033109 | 47 | 240 | 0.0 | 0.0 | 0.00 | 0.00 | 0.00 | 54 | 1013.9 |
| 20260504032606 | 47 | 239 | 0.0 | 0.0 | 0.00 | 0.00 | 0.00 | 53 | 1013.8 |
| 20260504032103 | 47 | 239 | 0.0 | 0.0 | 0.00 | 0.00 | 0.00 | 54 | 1013.9 |
| 20260504031600 | 47 | 246 | 0.0 | 0.0 | 0.00 | 0.00 | 0.00 | 54 | 1014.0 |
| 20260504031056 | 47 | 221 | 0.0 | 0.0 | 0.00 | 0.00 | 0.00 | 54 | 1014.0 |
| 20260504030553 | 47 | 218 | 0.0 | 0.0 | 0.00 | 0.00 | 0.00 | 53 | 1014.0 |
| 20260504030049 | 47 | 217 | 0.0 | 0.0 | 0.00 | 0.00 | 0.00 | 53 | 1014.0 |
| 20260504025547 | 47 | 217 | 0.0 | 0.0 | 0.00 | 0.00 | 0.00 | 51 | 1013.8 |
| 20260504025043 | 47 | 217 | 0.0 | 0.0 | 0.00 | 0.00 | 0.00 | 51 | 1013.9 |
| 20260504024541 | 47 | 217 | 0.0 | 0.0 | 0.00 | 0.00 | 0.00 | 52 | 1014.1 |
| 20260504024037 | 47 | 217 | 0.0 | 0.0 | 0.00 | 0.00 | 0.00 | 52 | 1013.9 |
| 20260504023534 | 47 | 217 | 0.0 | 0.0 | 0.00 | 0.00 | 0.00 | 51 | 1014.1 |
| 20260504023030 | 47 | 222 | 0.0 | 0.9 | 0.00 | 0.00 | 0.00 | 50 | 1014.4 |
| 20260504022526 | 47 | 218 | 0.0 | 0.0 | 0.00 | 0.00 | 0.00 | 52 | 1014.2 |
| 20260504022023 | 46 | 214 | 0.0 | 0.0 | 0.00 | 0.00 | 0.00 | 56 | 1014.1 |
| 20260504021520 | 47 | 214 | 0.0 | 0.0 | 0.00 | 0.00 | 0.00 | 58 | 1014.2 |
| 20260504021017 | 47 | 214 | 0.0 | 0.0 | 0.00 | 0.00 | 0.00 | 54 | 1014.3 |
| 20260504020514 | 47 | 214 | 0.0 | 0.0 | 0.00 | 0.00 | 0.00 | 51 | 1014.2 |
| 20260504020010 | 48 | 209 | 0.0 | 0.0 | 0.00 | 0.00 | 0.00 | 51 | 1014.2 |
| 20260504015507 | 48 | 208 | 0.0 | 0.0 | 0.00 | 0.00 | 0.00 | 50 | 1014.2 |
| 20260504015003 | 47 | 230 | 0.0 | 0.0 | 0.00 | 0.00 | 0.00 | 51 | 1014.0 |
| 20260504014459 | 47 | 141 | 0.0 | 0.0 | 0.00 | 0.00 | 0.00 | 52 | 1013.8 |
| 20260504013956 | 47 | 136 | 0.0 | 0.0 | 0.00 | 0.00 | 0.00 | 51 | 1013.6 |
| 20260504013454 | 48 | 240 | 0.0 | 0.0 | 0.00 | 0.00 | 0.00 | 48 | 1013.6 |
| 20260504012950 | 47 | 240 | 0.0 | 0.0 | 0.00 | 0.00 | 0.00 | 49 | 1013.8 |
| 20260504012448 | 48 | 240 | 0.0 | 0.0 | 0.00 | 0.00 | 0.00 | 49 | 1013.3 |
| 20260504011946 | 48 | 240 | 0.0 | 0.0 | 0.00 | 0.00 | 0.00 | 46 | 1013.1 |
| 20260504011442 | 48 | 240 | 0.0 | 0.0 | 0.00 | 0.00 | 0.00 | 48 | 1013.2 |
| 20260504010938 | 48 | 229 | 0.0 | 0.0 | 0.00 | 0.00 | 0.00 | 48 | 1013.3 |
| 20260504010434 | 48 | 219 | 0.0 | 0.0 | 0.00 | 0.00 | 0.00 | 45 | 1013.1 |
| 20260504005930 | 49 | 218 | 0.0 | 0.0 | 0.00 | 0.00 | 0.00 | 45 | 1013.2 |
| 20260504005427 | 49 | 217 | 0.0 | 0.0 | 0.00 | 0.00 | 0.00 | 45 | 1013.1 |
| 20260504004925 | 49 | 226 | 0.0 | 0.0 | 0.00 | 0.00 | 0.00 | 44 | 1013.0 |
| 20260504004422 | 49 | 225 | 0.0 | 0.0 | 0.00 | 0.00 | 0.00 | 44 | 1013.0 |
| 20260504003919 | 49 | 224 | 0.0 | 0.0 | 0.00 | 0.00 | 0.00 | 43 | 1012.8 |
| 20260504003415 | 50 | 264 | 0.0 | 0.0 | 0.00 | 0.00 | 0.00 | 44 | 1012.9 |
| 20260504002912 | 50 | 223 | 0.0 | 0.0 | 0.00 | 0.00 | 0.00 | 43 | 1012.9 |
| 20260504002409 | 50 | 234 | 0.9 | 1.7 | 0.00 | 0.00 | 0.00 | 42 | 1012.9 |
| 20260504001907 | 50 | 182 | 0.0 | 0.0 | 0.00 | 0.00 | 0.00 | 42 | 1012.8 |
| 20260504001404 | 50 | 224 | 0.0 | 0.0 | 0.00 | 0.00 | 0.00 | 43 | 1012.8 |
| 20260504000900 | 51 | 226 | 0.0 | 0.0 | 0.00 | 0.00 | 0.00 | 41 | 1012.7 |
| 20260504000358 | 51 | 236 | 0.0 | 0.0 | 0.00 | 0.00 | 0.00 | 41 | 1012.8 |
| 20260503235855 | 51 | 229 | 0.0 | 0.0 | 0.00 | 0.00 | 0.00 | 42 | 1012.8 |
| 20260503235353 | 51 | 215 | 0.0 | 0.0 | 0.00 | 0.00 | 0.00 | 42 | 1012.9 |
| 20260503234850 | 51 | 215 | 0.0 | 0.0 | 0.00 | 0.00 | 0.00 | 42 | 1012.7 |
| 20260503234348 | 51 | 213 | 0.0 | 0.0 | 0.00 | 0.00 | 0.00 | 42 | 1012.7 |
| 20260503233845 | 52 | 212 | 0.0 | 0.0 | 0.00 | 0.00 | 0.00 | 41 | 1012.9 |
| 20260503233341 | 52 | 212 | 0.0 | 0.0 | 0.00 | 0.00 | 0.00 | 43 | 1012.7 |
| 20260503232837 | 52 | 143 | 0.0 | 0.0 | 0.00 | 0.00 | 0.00 | 41 | 1012.8 |
| 20260503232335 | 52 | 179 | 0.0 | 0.0 | 0.00 | 0.00 | 0.00 | 41 | 1013.1 |
| 20260503231833 | 52 | 270 | 0.9 | 1.7 | 0.00 | 0.00 | 0.00 | 41 | 1012.8 |
| 20260503231330 | 52 | 187 | 0.9 | 0.9 | 0.00 | 0.00 | 0.00 | 40 | 1012.9 |
| 20260503230825 | 53 | 235 | 0.0 | 0.0 | 0.00 | 0.00 | 0.00 | 40 | 1012.7 |
| 20260503230323 | 53 | 280 | 0.9 | 1.7 | 0.00 | 0.00 | 0.00 | 38 | 1012.7 |
| 20260503225820 | 53 | 218 | 0.0 | 1.7 | 0.00 | 0.00 | 0.00 | 40 | 1012.8 |
| 20260503225316 | 53 | 232 | 0.0 | 0.0 | 0.00 | 0.00 | 0.00 | 39 | 1012.9 |
| 20260503224812 | 54 | 326 | 2.6 | 2.6 | 0.00 | 0.00 | 0.00 | 38 | 1012.6 |
| 20260503224310 | 54 | 75 | 0.9 | 2.6 | 0.00 | 0.00 | 0.00 | 36 | 1012.8 |
| 20260503223808 | 54 | 195 | 0.0 | 0.0 | 0.00 | 0.00 | 0.00 | 34 | 1012.8 |
| 20260503223305 | 54 | 196 | 0.0 | 0.0 | 0.00 | 0.00 | 0.00 | 40 | 1012.6 |
| 20260503222800 | 54 | 196 | 0.0 | 0.0 | 0.00 | 0.00 | 0.00 | 40 | 1012.6 |
| 20260503222259 | 55 | 186 | 0.0 | 1.7 | 0.00 | 0.00 | 0.00 | 37 | 1012.9 |
| 20260503221757 | 55 | 175 | 1.7 | 2.6 | 0.00 | 0.00 | 0.00 | 34 | 1012.8 |
| 20260503221255 | 55 | 193 | 0.0 | 0.0 | 0.00 | 0.00 | 0.00 | 34 | 1012.8 |
| 20260503220751 | 55 | 206 | 0.0 | 1.7 | 0.00 | 0.00 | 0.00 | 37 | 1012.4 |
| 20260503220248 | 56 | 359 | 0.0 | 0.0 | 0.00 | 0.00 | 0.00 | 34 | 1012.6 |
| 20260503215745 | 56 | 35 | 0.9 | 1.7 | 0.00 | 0.00 | 0.00 | 34 | 1012.7 |
| 20260503215242 | 56 | 244 | 0.0 | 2.6 | 0.00 | 0.00 | 0.00 | 34 | 1012.6 |
| 20260503214740 | 58 | 106 | 1.7 | 4.3 | 0.00 | 0.00 | 0.00 | 32 | 1012.5 |
| 20260503214236 | 59 | 203 | 0.0 | 2.6 | 0.00 | 0.00 | 0.00 | 31 | 1012.7 |
| 20260503213735 | 59 | 129 | 0.9 | 2.6 | 0.00 | 0.00 | 0.00 | 33 | 1012.7 |
| 20260503213231 | 59 | 103 | 1.7 | 5.2 | 0.00 | 0.00 | 0.00 | 30 | 1012.7 |
| 20260503212728 | 59 | 94 | 2.6 | 4.3 | 0.00 | 0.00 | 0.00 | 32 | 1012.8 |
| 20260503212226 | 58 | 130 | 0.9 | 1.7 | 0.00 | 0.00 | 0.00 | 31 | 1012.9 |
| 20260503211723 | 59 | 122 | 1.7 | 1.7 | 0.00 | 0.00 | 0.00 | 31 | 1012.9 |
| 20260503211219 | 59 | 115 | 0.0 | 0.9 | 0.00 | 0.00 | 0.00 | 34 | 1013.1 |
| 20260503210715 | 59 | 237 | 2.6 | 2.6 | 0.00 | 0.00 | 0.00 | 34 | 1012.9 |
| 20260503210213 | 60 | 106 | 2.6 | 4.3 | 0.00 | 0.00 | 0.00 | 29 | 1012.9 |
| 20260503205708 | 59 | 330 | 1.7 | 4.3 | 0.00 | 0.00 | 0.00 | 33 | 1012.8 |
| 20260503205204 | 59 | 201 | 1.7 | 5.2 | 0.00 | 0.00 | 0.00 | 31 | 1013.1 |
| 20260503204700 | 60 | 43 | 0.9 | 4.3 | 0.00 | 0.00 | 0.00 | 32 | 1013.0 |
| 20260503204158 | 59 | 210 | 0.9 | 4.3 | 0.00 | 0.00 | 0.00 | 28 | 1013.0 |
| 20260503203655 | 59 | 93 | 0.9 | 4.3 | 0.00 | 0.00 | 0.00 | 30 | 1012.9 |
| 20260503203153 | 59 | 175 | 2.6 | 5.2 | 0.00 | 0.00 | 0.00 | 30 | 1013.1 |
| 20260503202650 | 59 | 174 | 0.9 | 4.3 | 0.00 | 0.00 | 0.00 | 34 | 1013.3 |
| 20260503202148 | 59 | 258 | 2.6 | 4.3 | 0.00 | 0.00 | 0.00 | 32 | 1013.4 |
| 20260503201646 | 59 | 163 | 0.0 | 2.6 | 0.00 | 0.00 | 0.00 | 31 | 1013.3 |
| 20260503201143 | 59 | 86 | 0.9 | 4.3 | 0.00 | 0.00 | 0.00 | 29 | 1013.3 |
| 20260503200639 | 58 | 137 | 1.7 | 2.6 | 0.00 | 0.00 | 0.00 | 36 | 1013.3 |
| 20260503200135 | 58 | 92 | 1.7 | 4.3 | 0.00 | 0.00 | 0.00 | 35 | 1013.6 |
| 20260503195633 | 58 | 123 | 2.6 | 6.1 | 0.00 | 0.00 | 0.00 | 33 | 1013.9 |
| 20260503195129 | 59 | 253 | 1.7 | 4.3 | 0.00 | 0.00 | 0.00 | 31 | 1013.8 |
| 20260503194627 | 58 | 318 | 2.6 | 5.2 | 0.00 | 0.00 | 0.00 | 32 | 1013.8 |
| 20260503194122 | 59 | 72 | 5.2 | 7.8 | 0.00 | 0.00 | 0.00 | 32 | 1013.7 |
| 20260503193619 | 59 | 142 | 0.9 | 4.3 | 0.00 | 0.00 | 0.00 | 33 | 1014.0 |
| 20260503193114 | 59 | 98 | 3.5 | 6.1 | 0.00 | 0.00 | 0.00 | 31 | 1014.0 |
| 20260503192610 | 59 | 197 | 1.7 | 4.3 | 0.00 | 0.00 | 0.00 | 29 | 1014.0 |
| 20260503192106 | 57 | 272 | 2.6 | 6.1 | 0.00 | 0.00 | 0.00 | 30 | 1013.9 |
| 20260503191603 | 58 | 171 | 0.0 | 2.6 | 0.00 | 0.00 | 0.00 | 32 | 1014.1 |
| 20260503191059 | 58 | 333 | 2.6 | 7.0 | 0.00 | 0.00 | 0.00 | 35 | 1014.0 |
| 20260503190557 | 56 | 151 | 0.9 | 2.6 | 0.00 | 0.00 | 0.00 | 32 | 1014.3 |
| 20260503190054 | 58 | 281 | 3.5 | 6.1 | 0.00 | 0.00 | 0.00 | 30 | 1014.4 |
| 20260503185550 | 57 | 198 | 0.0 | 5.2 | 0.00 | 0.00 | 0.00 | 34 | 1014.3 |
| 20260503185050 | 57 | 80 | 0.0 | 5.2 | 0.00 | 0.00 | 0.00 | 31 | 1014.4 |
| 20260503184546 | 57 | 27 | 3.5 | 5.2 | 0.00 | 0.00 | 0.00 | 31 | 1014.4 |
| 20260503184043 | 57 | 263 | 3.5 | 7.0 | 0.00 | 0.00 | 0.00 | 30 | 1014.6 |
| 20260503183539 | 57 | 133 | 0.0 | 4.3 | 0.00 | 0.00 | 0.00 | 36 | 1014.8 |
| 20260503183037 | 57 | 340 | 0.0 | 2.6 | 0.00 | 0.00 | 0.00 | 33 | 1014.7 |
| 20260503182535 | 57 | 89 | 3.5 | 7.0 | 0.00 | 0.00 | 0.00 | 32 | 1014.8 |
| 20260503182033 | 57 | 159 | 0.9 | 4.3 | 0.00 | 0.00 | 0.00 | 31 | 1014.9 |
| 20260503181529 | 56 | 109 | 0.0 | 4.3 | 0.00 | 0.00 | 0.00 | 31 | 1014.7 |
| 20260503181026 | 55 | 270 | 2.6 | 7.0 | 0.00 | 0.00 | 0.00 | 37 | 1014.7 |
| 20260503180523 | 56 | 298 | 1.7 | 5.2 | 0.00 | 0.00 | 0.00 | 33 | 1014.8 |
| 20260503180020 | 57 | 44 | 1.7 | 2.6 | 0.00 | 0.00 | 0.00 | 32 | 1014.9 |
| 20260503175518 | 57 | 103 | 0.9 | 6.1 | 0.00 | 0.00 | 0.00 | 33 | 1015.0 |
| 20260503175015 | 56 | 113 | 1.7 | 4.3 | 0.00 | 0.00 | 0.00 | 36 | 1015.0 |
| 20260503174512 | 55 | 265 | 2.6 | 5.2 | 0.00 | 0.00 | 0.00 | 38 | 1014.8 |
| 20260503174008 | 55 | 83 | 1.7 | 6.1 | 0.00 | 0.00 | 0.00 | 32 | 1014.9 |
| 20260503173503 | 55 | 162 | 0.9 | 5.2 | 0.00 | 0.00 | 0.00 | 35 | 1014.9 |
| 20260503173000 | 56 | 73 | 3.5 | 6.1 | 0.00 | 0.00 | 0.00 | 35 | 1015.0 |
| 20260503172458 | 55 | 92 | 7.8 | 8.7 | 0.00 | 0.00 | 0.00 | 36 | 1014.8 |
| 20260503171954 | 55 | 227 | 2.6 | 5.2 | 0.00 | 0.00 | 0.00 | 32 | 1015.2 |
| 20260503171451 | 54 | 114 | 2.6 | 6.1 | 0.00 | 0.00 | 0.00 | 35 | 1014.8 |
| 20260503170948 | 55 | 101 | 1.7 | 7.8 | 0.00 | 0.00 | 0.00 | 37 | 1015.3 |
| 20260503170444 | 54 | 124 | 1.7 | 7.0 | 0.00 | 0.00 | 0.00 | 34 | 1015.2 |
| 20260503150837 | 49 | 112 | 2.6 | 5.2 | 0.00 | 0.00 | 0.00 | 48 | 1016.1 |
| 20260503150333 | 48 | 66 | 3.5 | 7.0 | 0.00 | 0.00 | 0.00 | 49 | 1016.3 |
| 20260503140257 | 47 | 334 | 1.7 | 4.3 | 0.00 | 0.00 | 0.00 | 52 | 1016.1 |
| 20260503131227 | 45 | 182 | 2.6 | 5.2 | 0.00 | 0.00 | 0.00 | 49 | 1015.8 |
| 20260503130724 | 45 | 135 | 0.0 | 0.9 | 0.00 | 0.00 | 0.00 | 49 | 1016.3 |
| 20260503130221 | 46 | 93 | 1.7 | 5.2 | 0.00 | 0.00 | 0.00 | 51 | 1016.1 |
| 20260503120147 | 42 | 79 | 2.6 | 7.0 | 0.00 | 0.00 | 0.00 | 56 | 1015.6 |
| 20260503110615 | 39 | 118 | 0.0 | 2.6 | 0.00 | 0.00 | 0.00 | 62 | 1015.0 |
| 20260503110112 | 39 | 212 | 0.9 | 0.9 | 0.00 | 0.00 | 0.00 | 63 | 1015.0 |
| 20260503090501 | 37 | 255 | 0.9 | 4.3 | 0.00 | 0.00 | 0.00 | 66 | 1013.6 |
| 20260503081428 | 38 | 120 | 0.0 | 0.9 | 0.00 | 0.00 | 0.00 | 66 | 1013.1 |
| 20260503080925 | 38 | 165 | 0.9 | 4.3 | 0.00 | 0.00 | 0.00 | 63 | 1013.1 |
| 20260503080422 | 38 | 258 | 0.9 | 1.7 | 0.00 | 0.00 | 0.00 | 68 | 1013.0 |
| 20260503072858 | 39 | 75 | 0.9 | 1.7 | 0.00 | 0.00 | 0.00 | 66 | 1012.8 |
| 20260503072355 | 39 | 163 | 0.9 | 5.2 | 0.00 | 0.00 | 0.00 | 66 | 1012.7 |
| 20260503071851 | 39 | 93 | 0.0 | 0.9 | 0.00 | 0.00 | 0.00 | 64 | 1012.7 |
| 20260503071349 | 39 | 75 | 3.5 | 4.3 | 0.00 | 0.00 | 0.00 | 64 | 1012.7 |
| 20260503070845 | 39 | 117 | 0.0 | 0.9 | 0.00 | 0.00 | 0.00 | 66 | 1012.8 |
| 20260503070343 | 39 | 222 | 0.0 | 0.0 | 0.00 | 0.00 | 0.00 | 66 | 1012.8 |
| 20260503060314 | 39 | 163 | 0.0 | 0.0 | 0.00 | 0.00 | 0.00 | 65 | 1012.8 |
| 20260503054801 | 39 | 96 | 2.6 | 2.6 | 0.00 | 0.00 | 0.00 | 65 | 1012.8 |
| 20260503054258 | 40 | 203 | 0.0 | 0.9 | 0.00 | 0.00 | 0.00 | 68 | 1012.7 |
| 20260503053755 | 39 | 193 | 1.7 | 2.6 | 0.00 | 0.00 | 0.00 | 66 | 1012.7 |
| 20260503053255 | 39 | 240 | 0.0 | 1.7 | 0.00 | 0.00 | 0.00 | 71 | 1012.7 |
| 20260503052750 | 39 | 186 | 0.0 | 0.9 | 0.00 | 0.00 | 0.00 | 70 | 1012.5 |
| 20260503052247 | 40 | 94 | 0.0 | 1.7 | 0.00 | 0.00 | 0.00 | 71 | 1012.7 |
| 20260503051742 | 40 | 123 | 0.0 | 0.0 | 0.00 | 0.00 | 0.00 | 69 | 1012.6 |
| 20260503051241 | 40 | 190 | 0.0 | 0.0 | 0.00 | 0.00 | 0.00 | 68 | 1012.8 |